TimeCDT,TemperatureF,Dew PointF,Humidity,Sea Level PressureIn,VisibilityMPH,Wind Direction,Wind SpeedMPH,Gust SpeedMPH,PrecipitationIn,Events,Conditions,WindDirDegrees,DateUTC
12:15 AM,42.8,37.4,81,29.89,10.0,NNE,17.3,27.6,N/A,Rain,Light Rain,30,2012-10-04 05:15:00
12:35 AM,42.8,39.2,87,29.87,10.0,NE,16.1,24.2,N/A,,Light Drizzle,40,2012-10-04 05:35:00
12:55 AM,42.8,39.2,87,29.87,10.0,NNE,16.1,29.9,N/A,,Overcast,30,2012-10-04 05:55:00
1:15 AM,42.8,39.2,87,29.87,10.0,NNE,16.1,24.2,N/A,Rain,Light Rain,20,2012-10-04 06:15:00
1:35 AM,42.8,39.2,87,29.86,10.0,North,16.1,26.5,N/A,,Overcast,10,2012-10-04 06:35:00
1:55 AM,42.8,39.2,87,29.86,10.0,North,19.6,23.0,N/A,Thunderstorm,Overcast,10,2012-10-04 06:55:00
2:15 AM,42.8,39.2,87,29.85,10.0,North,20.7,26.5,N/A,Rain,Light Rain,10,2012-10-04 07:15:00
2:35 AM,42.8,39.2,87,29.84,10.0,North,19.6,28.8,N/A,Rain,Light Rain,10,2012-10-04 07:35:00
2:55 AM,41.0,37.4,87,29.82,10.0,NNE,18.4,29.9,0.01,Rain,Light Rain,20,2012-10-04 07:55:00
3:15 AM,41.0,37.4,87,29.81,10.0,NNE,20.7,26.5,0.01,Rain,Light Rain,20,2012-10-04 08:15:00
3:35 AM,41.0,37.4,87,29.79,10.0,NNE,19.6,26.5,0.02,Rain,Light Rain,20,2012-10-04 08:35:00
3:55 AM,41.0,37.4,87,29.79,10.0,NNE,21.9,27.6,0.03,Rain,Light Rain,20,2012-10-04 08:55:00
4:16 AM,41.0,37.4,87,29.79,10.0,North,18.4,25.3,0.01,Rain,Light Rain,10,2012-10-04 09:16:00
4:35 AM,41.0,37.4,87,29.79,10.0,North,17.3,26.5,0.01,,Overcast,10,2012-10-04 09:35:00
4:55 AM,39.2,37.4,93,29.80,10.0,North,15.0,20.7,0.01,Rain,Light Rain,350,2012-10-04 09:55:00
5:16 AM,39.2,37.4,93,29.79,10.0,North,16.1,23.0,N/A,,Light Drizzle,350,2012-10-04 10:16:00
5:35 AM,39.2,37.4,93,29.79,10.0,North,20.7,24.2,N/A,,Overcast,350,2012-10-04 10:35:00
5:55 AM,39.2,37.4,93,29.77,10.0,North,24.2,28.8,N/A,,Light Drizzle,350,2012-10-04 10:55:00
6:15 AM,39.2,37.4,93,29.78,10.0,NNW,21.9,26.5,N/A,Thunderstorm,Unknown,330,2012-10-04 11:15:00
6:35 AM,37.4,35.6,93,29.79,2.0,NW,25.3,31.1,N/A,,Light Drizzle,320,2012-10-04 11:35:00
6:55 AM,33.8,32.0,93,29.80,1.5,NW,24.2,27.6,N/A,,Drizzle,320,2012-10-04 11:55:00
7:15 AM,32.0,30.2,93,29.80,1.5,NW,28.8,34.5,0.01,,Heavy Drizzle,320,2012-10-04 12:15:00
7:35 AM,32.0,30.2,93,29.80,1.8,NW,26.5,36.8,0.04,,Overcast,310,2012-10-04 12:35:00
7:55 AM,30.2,30.2,100,29.80,2.0,NW,25.3,33.4,0.07,,Overcast,320,2012-10-04 12:55:00
8:15 AM,30.2,30.2,100,29.81,3.0,NW,23.0,31.1,0.01,,Overcast,310,2012-10-04 13:15:00
8:35 AM,30.2,30.2,100,29.81,2.5,NW,24.2,34.5,0.01,Snow,Light Snow,320,2012-10-04 13:35:00
8:55 AM,30.2,30.2,100,29.82,0.8,NW,25.3,36.8,0.02,Snow,Light Snow,310,2012-10-04 13:55:00
9:15 AM,30.2,30.2,100,29.82,0.8,NW,27.6,36.8,0.01,Snow,Light Snow,320,2012-10-04 14:15:00
9:35 AM,30.2,30.2,100,29.82,1.0,NW,26.5,35.7,0.01,Snow,Light Snow,320,2012-10-04 14:35:00
9:55 AM,30.2,30.2,100,29.82,1.0,NW,24.2,29.9,0.01,Snow,Light Snow,320,2012-10-04 14:55:00
10:15 AM,30.2,30.2,100,29.83,1.2,NW,21.9,34.5,N/A,Snow,Light Snow,320,2012-10-04 15:15:00
10:35 AM,30.2,30.2,100,29.84,0.8,NW,20.7,28.8,N/A,Snow,Light Snow,310,2012-10-04 15:35:00
10:55 AM,30.2,30.2,100,29.85,0.5,WNW,17.3,27.6,0.01,Snow,Snow,300,2012-10-04 15:55:00
11:15 AM,30.2,30.2,100,29.86,0.5,WNW,20.7,25.3,0.01,Snow,Snow,290,2012-10-04 16:15:00
11:35 AM,30.2,30.2,100,29.87,0.5,WNW,21.9,31.1,0.02,Snow,Snow,300,2012-10-04 16:35:00
11:55 AM,30.2,30.2,100,29.87,0.5,WNW,21.9,34.5,0.02,Snow,Snow,300,2012-10-04 16:55:00
12:15 PM,30.2,30.2,100,29.89,0.5,WNW,24.2,34.5,N/A,Snow,Snow,290,2012-10-04 17:15:00
12:35 PM,30.2,30.2,100,29.90,0.5,WNW,23.0,38.0,N/A,Snow,Light Snow,300,2012-10-04 17:35:00
12:55 PM,30.2,30.2,100,29.91,0.8,WNW,24.2,38.0,N/A,Snow,Light Snow,290,2012-10-04 17:55:00
1:35 PM,32.0,30.2,93,29.93,1.0,WNW,21.9,35.7,N/A,Snow,Light Snow,300,2012-10-04 18:35:00
1:55 PM,32.0,30.2,93,29.94,1.8,WNW,23.0,35.7,N/A,Snow,Light Snow,300,2012-10-04 18:55:00
2:15 PM,33.8,30.2,87,29.94,3.0,WNW,26.5,33.4,N/A,Snow,Light Snow,300,2012-10-04 19:15:00
2:35 PM,32.0,30.2,93,29.95,1.8,WNW,25.3,34.5,N/A,Snow,Light Snow,290,2012-10-04 19:35:00
2:55 PM,33.8,30.2,87,29.96,2.5,WNW,27.6,35.7,N/A,,Overcast,300,2012-10-04 19:55:00
3:15 PM,33.8,30.2,87,29.97,2.5,WNW,21.9,39.1,N/A,Snow,Light Snow,290,2012-10-04 20:15:00
3:35 PM,33.8,30.2,87,29.98,2.5,WNW,29.9,40.3,N/A,Snow,Light Snow,290,2012-10-04 20:35:00
3:55 PM,32.0,30.2,93,29.99,2.5,WNW,23.0,31.1,N/A,Snow,Light Snow,290,2012-10-04 20:55:00
4:16 PM,32.0,30.2,93,30.00,1.5,WNW,20.7,36.8,N/A,Snow,Light Snow,290,2012-10-04 21:16:00
4:35 PM,32.0,30.2,93,30.01,1.5,WNW,24.2,34.5,N/A,Snow,Light Snow,290,2012-10-04 21:35:00
4:55 PM,32.0,30.2,93,30.01,1.8,WNW,21.9,29.9,N/A,Snow,Light Snow,290,2012-10-04 21:55:00
5:16 PM,32.0,30.2,93,30.02,1.5,WNW,21.9,29.9,N/A,Snow,Light Snow,290,2012-10-04 22:16:00
5:35 PM,32.0,30.2,93,30.03,2.5,WNW,19.6,32.2,N/A,Snow,Light Snow,290,2012-10-04 22:35:00
5:55 PM,32.0,30.2,93,30.03,3.0,WNW,24.2,33.4,N/A,Snow,Light Snow,300,2012-10-04 22:55:00
6:16 PM,32.0,30.2,93,30.04,3.0,WNW,20.7,33.4,N/A,Snow,Light Snow,300,2012-10-04 23:16:00
6:35 PM,32.0,30.2,93,30.04,4.0,WNW,21.9,31.1,N/A,Snow,Light Snow,300,2012-10-04 23:35:00
6:55 PM,32.0,30.2,93,30.05,5.0,WNW,21.9,35.7,N/A,Snow,Light Snow,300,2012-10-04 23:55:00
7:15 PM,32.0,30.2,93,30.05,7.0,WNW,20.7,32.2,N/A,Snow,Light Snow,300,2012-10-05 00:15:00
7:35 PM,32.0,30.2,93,30.06,7.0,WNW,21.9,32.2,N/A,,Overcast,300,2012-10-05 00:35:00
7:56 PM,30.2,30.2,100,30.06,3.0,WNW,17.3,26.5,N/A,Snow,Light Snow,290,2012-10-05 00:56:00
9:15 PM,32.0,30.2,93,30.05,4.0,WNW,21.9,32.2,N/A,,Overcast,290,2012-10-05 02:15:00
9:35 PM,32.0,30.2,93,30.06,7.0,WNW,21.9,35.7,N/A,Snow,Light Snow,290,2012-10-05 02:35:00
9:56 PM,32.0,30.2,93,30.06,10.0,WNW,24.2,31.1,N/A,Snow,Light Snow,290,2012-10-05 02:56:00
10:15 PM,32.0,30.2,93,30.06,10.0,WNW,23.0,34.5,N/A,,Overcast,290,2012-10-05 03:15:00
10:35 PM,32.0,30.2,93,30.07,10.0,WNW,23.0,33.4,N/A,,Overcast,300,2012-10-05 03:35:00
10:56 PM,32.0,30.2,93,30.07,7.0,WNW,19.6,33.4,N/A,,Overcast,290,2012-10-05 03:56:00
11:15 PM,32.0,30.2,93,30.07,5.0,WNW,20.7,31.1,N/A,Snow,Light Snow,290,2012-10-05 04:15:00
11:35 PM,30.2,30.2,100,30.07,7.0,WNW,21.9,29.9,N/A,,Overcast,290,2012-10-05 04:35:00
11:56 PM,30.2,30.2,100,30.08,7.0,WNW,24.2,33.4,N/A,Snow,Light Snow,300,2012-10-05 04:56:00